Flag for U.S.A. Weather past 2 weeks in New Bedford, Massachusetts, U.S.A.

Now
33 °F

Overcast.


Feels Like: 24 °F
Forecast: 20 / 37 °F
Wind: 12 mph from West

Location: New Bedford Regional Airport

Current Time: Jan 25, 2015 at 6:17:17 AM

Latest Report: Jan 25, 2015 at 4:53 AM


Visibility: 10 mi

Pressure: 29.46 "Hg

Humidity: 82%

Dew point: 28 °F

Location of New BedfordLocation

Historic Weather in New Bedford — Graph

°F

New Bedford temperature yesterday

Maximum temperature yesterday: 36 °F (at 2:53 AM)
Minimum temperature yesterday: 31 °F (at 11:53 PM)
Average temperature yesterday: 34 °F

Past Weeks' High & Low Weather Summary

 TemperatureHumidityPressure
High52 °F (Jan 18, 12:53 PM)100% (Jan 12, 2:53 PM)30.66 "Hg (Jan 12, 2:53 PM)
Low9 °F (Jan 17, 6:53 AM)24% (Jan 17, 2:53 PM)29.08 "Hg (Jan 24, 4:53 PM)
Average29 °F69%30.09 "Hg
* Reported Jan 10 4:53 AM — Jan 25 4:53 AM, New Bedford, Weather by CustomWeather, © 2014

Note: Actual official high and low records may vary slightly from our data, if they occured in-between our weather recording intervals... More about our weather records

Advertising

New Bedford weather history for previous 24 hours

 ConditionsComfort  
Time TempWeatherWind HumidityBarometerVisibility
4:53 AM
Jan 25
33 °FOvercast.12 mph82%29.46 "Hg10 mi
3:53 AM32 °FPassing clouds.9 mph82%29.44 "Hg10 mi
2:53 AM30 °FClear.12 mph89%29.41 "Hg10 mi
1:53 AM32 °FOvercast.14 mph85%29.38 "Hg10 mi
12:53 AM32 °FPassing clouds.7 mph88%29.34 "Hg10 mi
11:53 PM
Jan 24
31 °FClear.10 mph92%29.31 "Hg10 mi
10:53 PM32 °FClear.9 mph92%29.28 "Hg10 mi
9:53 PM33 °FPassing clouds.6 mph96%29.26 "Hg10 mi
8:55 PM33 °FLight snow. Fog.10 mph96%29.23 "Hg2 mi
8:02 PM33 °FLight snow. Fog.13 mph96%29.20 "Hg2 mi
6:53 PM33 °FLight snow. Fog.9 mph96%29.17 "Hg2 mi
5:53 PM34 °FLight rain. Low clouds.8 mph97%29.15 "Hg10 mi
4:53 PM35 °FLight rain. Fog.12 mph92%29.08 "Hg6 mi
3:53 PM35 °FLight rain. Fog.14 mph96%29.11 "Hg4 mi
2:53 PM35 °FLight rain. Fog.13 mph96%29.19 "Hg5 mi
1:53 PM35 °FLight rain. Fog.17 mph92%29.23 "Hg2 mi
12:53 PM34 °FLight rain. Fog.10 mph97%29.31 "Hg2 mi
12:00 PM34 °FLight rain. Fog.12 mph97%29.37 "Hg2 mi
10:56 AM34 °FLight rain. Fog.8 mph97%29.48 "Hg2 mi
9:53 AM33 °FRain. Fog.13 mph96%29.56 "Hg4 mi
8:53 AM33 °FLight rain. Fog.8 mph100%29.62 "Hg3 mi
7:53 AM33 °FLight rain. Fog.5 mph100%29.67 "Hg2 mi
6:53 AM33 °FLight rain. Fog.5 mph96%29.74 "Hg2 mi
Weather by CustomWeather, © 2014

See weather overviewHow to use our weather pages